ROMMA est une association bénévole à but non lucratif. Votre soutien est indispensable : ADHERER à ROMMA ou FAIRE un DON

Taninges - (74, Haute-Savoie)

Vallée du Giffre (635 m)   Longitude: 06° 35' 38" E   Latitude: 46° 06' 21" N Station romma n°98
 

Détail journalier du     <<     >>

Température Precipitation Humidité Pression Vent Dir Rafale Dir. rafale Ensol.
Heure (°C) (mm) (%) (hPa) (km/h) (km/h) (min)
01:00 17.109510141O5ONO0
02:00 16.809510152SSE8SO0
03:00 16.709510151SO10OSO0
04:00 16.909310134E13E0
05:00 16.409410133SE10SE0
06:00 16.009510134O13ONO0
07:00 15.809510142O8ONO0
08:00 16.109510132OSO6OSO0
09:00 15.669410157S40ONO0
10:00 16.40.49410152OSO16OSO0
11:00 16.20.29410153OSO11SE0
12:00 16.42.29410153ENE11SE0
13:00 18.408110143S11ENE15
14:00 19.407810145OSO11ONO10
15:00 19.408010145OSO19SO0
16:00 18.808210148OSO18OSO0
17:00 18.607810147OSO16NO0
18:00 18.607710155OSO15O0
19:00 17.608610165ESE16SE0
20:00 17.308610165SE15ENE25
21:00 15.708710172NE6NE0
22:00 14.409110182NNE5ENE0
23:00 13.209410191ESE3ESE0
minuit 12.509510191ESE3ESE0

Graphique du 12-08-2019

 

Serveur OMMA